AAL2202 KDFW-MMMM

Flight info

Callsign AAL2202
Flight time 1h 59m
Altitude 33000
Route NELYN6 HOARY/N0461F350 DCT BRO/N0464F340 J25 MAM UJ35 TMN UJ14 QET UJ17 PIVAN DCT MLM
Aircraft A321/M-SDE3FGHIRWY/LB1

Departure

Time 2026-04-26 20:37
Airport Dallas Fort Worth International Airport (KDFW)

Arrival

Time 2026-04-26 22:36
Airport General Francisco J. Mujica International Airport (MMMM)
Time Latitude Longitude Altitude Speed Heading
2026-04-26 19:55 32.89130 -97.03521 598 ft 0 kts 249°
2026-04-26 20:25 32.89134 -97.03509 598 ft 4 kts 240°
2026-04-26 20:25 32.89140 -97.03495 598 ft 1 kts 258°
2026-04-26 20:25 32.89139 -97.03460 597 ft 4 kts 308°
2026-04-26 20:25 32.89119 -97.03442 597 ft 4 kts 340°
2026-04-26 20:26 32.89107 -97.03437 597 ft 1 kts 344°
2026-04-26 20:26 32.89106 -97.03437 597 ft 0 kts 344°
2026-04-26 20:30 32.89119 -97.03439 597 ft 5 kts 356°
2026-04-26 20:30 32.89165 -97.03421 597 ft 10 kts 54°
2026-04-26 20:30 32.89200 -97.03332 597 ft 13 kts 37°
2026-04-26 20:30 32.89284 -97.03316 597 ft 13 kts
2026-04-26 20:31 32.89382 -97.03315 597 ft 15 kts 360°
2026-04-26 20:31 32.89495 -97.03318 597 ft 17 kts 359°
2026-04-26 20:31 32.89613 -97.03316 597 ft 17 kts
2026-04-26 20:31 32.89737 -97.03316 597 ft 18 kts
2026-04-26 20:32 32.89871 -97.03315 597 ft 20 kts
2026-04-26 20:32 32.90018 -97.03315 597 ft 22 kts 359°
2026-04-26 20:32 32.90170 -97.03314 597 ft 22 kts
2026-04-26 20:32 32.90326 -97.03315 596 ft 23 kts 360°
2026-04-26 20:33 32.90484 -97.03315 597 ft 23 kts 360°
2026-04-26 20:33 32.90643 -97.03313 597 ft 23 kts
2026-04-26 20:33 32.90804 -97.03312 597 ft 23 kts 359°
2026-04-26 20:33 32.90954 -97.03311 597 ft 21 kts
2026-04-26 20:34 32.91070 -97.03275 596 ft 17 kts
2026-04-26 20:34 32.91190 -97.03274 597 ft 17 kts
2026-04-26 20:34 32.91307 -97.03276 597 ft 14 kts 359°
2026-04-26 20:34 32.91409 -97.03274 596 ft 15 kts
2026-04-26 20:35 32.91508 -97.03273 596 ft 11 kts
2026-04-26 20:35 32.91556 -97.03228 593 ft 12 kts 79°
2026-04-26 20:35 32.91556 -97.03108 582 ft 15 kts 94°
2026-04-26 20:35 32.91545 -97.02997 581 ft 10 kts 129°
2026-04-26 20:36 32.91526 -97.02991 581 ft 1 kts 178°
2026-04-26 20:36 32.91342 -97.02991 581 ft 61 kts 181°
2026-04-26 20:36 32.90704 -97.02994 580 ft 120 kts 180°
2026-04-26 20:36 32.89708 -97.03001 599 ft 162 kts 181°
2026-04-26 20:37 32.88546 -97.02982 1060 ft 170 kts 179°
2026-04-26 20:37 32.87345 -97.02929 1679 ft 174 kts 179°
2026-04-26 20:37 32.86131 -97.02914 2312 ft 175 kts 179°
2026-04-26 20:37 32.84851 -97.02920 2539 ft 193 kts 180°
2026-04-26 20:38 32.83441 -97.02934 2597 ft 215 kts 181°
2026-04-26 20:38 32.81846 -97.02972 2792 ft 237 kts 180°
2026-04-26 20:38 32.80184 -97.02989 3407 ft 240 kts 180°
2026-04-26 20:38 32.78499 -97.02980 4070 ft 244 kts 180°
2026-04-26 20:39 32.76789 -97.02966 4788 ft 246 kts 180°
2026-04-26 20:39 32.75650 -97.02969 5360 ft 247 kts 181°
2026-04-26 20:39 32.73352 -97.02987 6366 ft 253 kts 182°
2026-04-26 20:39 32.71570 -97.02999 7005 ft 256 kts 180°
2026-04-26 20:40 32.69788 -97.02593 7505 ft 271 kts 162°
2026-04-26 20:40 32.68016 -97.01627 7921 ft 282 kts 158°
2026-04-26 20:40 32.66227 -97.00675 8512 ft 286 kts 160°
2026-04-26 20:40 32.64398 -96.99734 9152 ft 287 kts 161°
2026-04-26 20:41 32.62547 -96.98805 9742 ft 290 kts 166°
2026-04-26 20:41 32.60586 -96.98590 10227 ft 283 kts 193°
2026-04-26 20:41 32.58697 -96.99274 10561 ft 290 kts 207°
2026-04-26 20:41 32.56895 -97.00447 10690 ft 310 kts 212°
2026-04-26 20:42 32.54950 -97.01738 10812 ft 331 kts 211°
2026-04-26 20:42 32.53085 -97.02942 10915 ft 347 kts 211°
2026-04-26 20:42 32.50914 -97.04323 11118 ft 360 kts 211°
2026-04-26 20:42 32.48682 -97.05731 11567 ft 365 kts 211°
2026-04-26 20:43 32.46431 -97.07149 12104 ft 369 kts 211°
2026-04-26 20:43 32.44154 -97.08587 12655 ft 373 kts 211°
2026-04-26 20:43 32.41862 -97.10045 13221 ft 376 kts 212°
2026-04-26 20:43 32.39549 -97.11525 13750 ft 380 kts 212°
2026-04-26 20:44 32.38006 -97.12515 14075 ft 382 kts 212°
2026-04-26 20:44 32.34901 -97.14503 14791 ft 384 kts 212°
2026-04-26 20:44 32.32546 -97.16006 15329 ft 386 kts 212°
2026-04-26 20:44 32.30161 -97.17494 15897 ft 390 kts 209°
2026-04-26 20:45 32.27576 -97.18579 16496 ft 398 kts 198°
2026-04-26 20:45 32.24813 -97.19101 17061 ft 405 kts 191°
2026-04-26 20:45 32.22955 -97.19347 17425 ft 407 kts 192°
2026-04-26 20:45 32.19212 -97.19840 18142 ft 410 kts 192°
2026-04-26 20:46 32.16372 -97.20216 18580 ft 413 kts 192°
2026-04-26 20:46 32.13508 -97.20599 19005 ft 416 kts 192°
2026-04-26 20:46 32.10624 -97.20985 19417 ft 419 kts 192°
2026-04-26 20:46 32.08699 -97.21243 19691 ft 421 kts 192°
2026-04-26 20:47 32.05777 -97.21635 20101 ft 424 kts 192°
2026-04-26 20:47 32.03828 -97.21897 20371 ft 426 kts 192°
2026-04-26 20:47 31.99869 -97.22433 20900 ft 431 kts 192°
2026-04-26 20:47 31.96882 -97.22836 21278 ft 434 kts 192°
2026-04-26 20:48 31.92887 -97.23369 21769 ft 438 kts 192°
2026-04-26 20:48 31.90838 -97.23639 22017 ft 440 kts 192°
2026-04-26 20:48 31.87782 -97.24038 22382 ft 443 kts 192°
2026-04-26 20:48 31.84744 -97.24438 22738 ft 446 kts 192°
2026-04-26 20:49 31.81646 -97.24850 23102 ft 449 kts 192°
2026-04-26 20:49 31.78531 -97.25271 23444 ft 453 kts 193°
2026-04-26 20:49 31.75391 -97.25693 23742 ft 455 kts 193°
2026-04-26 20:49 31.72237 -97.26113 24067 ft 457 kts 193°
2026-04-26 20:50 31.69076 -97.26530 24398 ft 458 kts 193°
2026-04-26 20:50 31.65954 -97.27201 24694 ft 452 kts 201°
2026-04-26 20:50 31.63006 -97.28414 25023 ft 448 kts 208°
2026-04-26 20:50 31.60120 -97.29786 25330 ft 449 kts 208°
2026-04-26 20:51 31.57217 -97.31162 25649 ft 450 kts 208°
2026-04-26 20:51 31.54306 -97.32535 25979 ft 452 kts 208°
2026-04-26 20:51 31.51420 -97.33891 26298 ft 453 kts 208°
2026-04-26 20:51 31.48484 -97.35265 26614 ft 455 kts 208°
2026-04-26 20:52 31.45545 -97.36641 26912 ft 456 kts 208°
2026-04-26 20:52 31.42604 -97.38018 27360 ft 454 kts 208°
2026-04-26 20:52 31.39676 -97.39390 27828 ft 452 kts 208°
2026-04-26 20:52 31.36762 -97.40759 28294 ft 450 kts 208°
2026-04-26 20:53 31.33865 -97.42122 28763 ft 448 kts 208°
2026-04-26 20:53 31.30977 -97.43482 29223 ft 446 kts 209°
2026-04-26 20:53 31.28107 -97.44831 29699 ft 444 kts 209°
2026-04-26 20:53 31.25280 -97.46151 30131 ft 442 kts 209°
2026-04-26 20:54 31.22432 -97.47478 30497 ft 440 kts 209°
2026-04-26 20:54 31.19593 -97.48800 30841 ft 439 kts 209°
2026-04-26 20:54 31.16762 -97.50120 31180 ft 437 kts 210°
2026-04-26 20:54 31.13944 -97.51438 31513 ft 436 kts 210°
2026-04-26 20:55 31.11126 -97.52759 31828 ft 435 kts 210°
2026-04-26 20:55 31.08320 -97.54070 32145 ft 435 kts 210°
2026-04-26 20:55 31.05512 -97.55380 32474 ft 434 kts 210°
2026-04-26 20:55 31.02712 -97.56684 32779 ft 434 kts 211°
2026-04-26 20:56 30.99916 -97.57988 32857 ft 433 kts 211°
2026-04-26 20:56 30.94330 -97.60591 32861 ft 431 kts 211°
2026-04-26 20:57 30.88792 -97.63156 32859 ft 431 kts 211°
2026-04-26 20:57 30.83217 -97.65740 32871 ft 431 kts 211°
2026-04-26 20:58 30.77650 -97.68316 32881 ft 431 kts 211°
2026-04-26 20:58 30.72084 -97.70893 32888 ft 431 kts 211°
2026-04-26 20:59 30.66507 -97.73466 32889 ft 431 kts 211°
2026-04-26 20:59 30.60920 -97.76034 32889 ft 433 kts 208°
2026-04-26 20:59 30.58013 -97.76940 32885 ft 446 kts 198°
2026-04-26 21:00 30.54880 -97.77242 32879 ft 459 kts 188°
2026-04-26 21:00 30.48440 -97.76686 32902 ft 465 kts 185°
2026-04-26 21:01 30.41990 -97.76097 32844 ft 465 kts 185°
2026-04-26 21:01 30.35532 -97.75529 32843 ft 466 kts 185°
2026-04-26 21:02 30.29068 -97.74962 32844 ft 466 kts 185°
2026-04-26 21:02 30.22595 -97.74381 32846 ft 467 kts 185°
2026-04-26 21:03 30.16160 -97.73805 32847 ft 467 kts 185°
2026-04-26 21:03 30.09652 -97.73227 32840 ft 468 kts 185°
2026-04-26 21:04 30.03164 -97.72648 32832 ft 469 kts 185°
2026-04-26 21:04 29.96664 -97.72069 32849 ft 469 kts 185°
2026-04-26 21:05 29.90157 -97.71496 32847 ft 469 kts 185°
2026-04-26 21:05 29.83686 -97.70930 32846 ft 470 kts 185°
2026-04-26 21:06 29.77170 -97.70353 32841 ft 470 kts 184°
2026-04-26 21:06 29.70653 -97.69773 32826 ft 470 kts 184°
2026-04-26 21:07 29.64129 -97.69189 32803 ft 470 kts 184°
2026-04-26 21:07 29.57600 -97.68609 32805 ft 470 kts 184°
2026-04-26 21:08 29.51120 -97.68043 32806 ft 470 kts 184°
2026-04-26 21:08 29.44589 -97.67472 32801 ft 470 kts 184°
2026-04-26 21:09 29.38062 -97.66898 32800 ft 471 kts 184°
2026-04-26 21:09 29.31528 -97.66319 32792 ft 471 kts 184°
2026-04-26 21:10 29.24995 -97.65747 32785 ft 471 kts 184°
2026-04-26 21:10 29.18496 -97.65181 32786 ft 471 kts 184°
2026-04-26 21:11 29.11953 -97.64616 32785 ft 472 kts 184°
2026-04-26 21:11 29.05412 -97.64047 32783 ft 472 kts 184°
2026-04-26 21:12 28.98867 -97.63474 32787 ft 472 kts 184°
2026-04-26 21:12 28.92319 -97.62904 32791 ft 472 kts 184°
2026-04-26 21:13 28.85767 -97.62339 32792 ft 472 kts 184°
2026-04-26 21:13 28.79258 -97.61771 32796 ft 472 kts 184°
2026-04-26 21:14 28.72707 -97.61196 32799 ft 472 kts 184°
2026-04-26 21:14 28.66151 -97.60628 32803 ft 473 kts 184°
2026-04-26 21:15 28.59588 -97.60062 32810 ft 473 kts 184°
2026-04-26 21:15 28.53066 -97.59508 32811 ft 473 kts 184°
2026-04-26 21:16 28.46494 -97.58940 32815 ft 474 kts 184°
2026-04-26 21:16 28.39918 -97.58368 32816 ft 474 kts 184°
2026-04-26 21:17 28.33335 -97.57794 32812 ft 475 kts 184°
2026-04-26 21:17 28.27052 -97.57252 32815 ft 475 kts 184°
2026-04-26 21:18 28.20755 -97.56723 32818 ft 476 kts 184°
2026-04-26 21:18 28.14189 -97.56165 32821 ft 477 kts 184°
2026-04-26 21:19 28.07572 -97.55589 32825 ft 477 kts 184°
2026-04-26 21:19 28.00946 -97.55017 32830 ft 477 kts 184°
2026-04-26 21:20 27.94326 -97.54452 32831 ft 477 kts 184°
2026-04-26 21:20 27.87695 -97.53889 32839 ft 478 kts 184°
2026-04-26 21:21 27.81059 -97.53327 32838 ft 478 kts 184°
2026-04-26 21:21 27.74468 -97.52774 32836 ft 478 kts 184°
2026-04-26 21:22 27.67828 -97.52212 32834 ft 478 kts 184°
2026-04-26 21:22 27.61194 -97.51641 32837 ft 478 kts 184°
2026-04-26 21:23 27.51252 -97.50792 32825 ft 478 kts 184°
2026-04-26 21:23 27.44663 -97.50239 32826 ft 478 kts 184°
2026-04-26 21:24 27.38036 -97.49676 32813 ft 478 kts 184°
2026-04-26 21:24 27.31407 -97.49118 32809 ft 478 kts 184°
2026-04-26 21:25 27.24770 -97.48561 32813 ft 478 kts 184°
2026-04-26 21:25 27.18130 -97.48003 32815 ft 479 kts 184°
2026-04-26 21:26 27.11533 -97.47443 32811 ft 479 kts 184°
2026-04-26 21:26 27.04887 -97.46877 32820 ft 479 kts 184°
2026-04-26 21:27 26.98236 -97.46318 32825 ft 479 kts 184°
2026-04-26 21:27 26.91588 -97.45762 32815 ft 479 kts 184°
2026-04-26 21:28 26.84984 -97.45216 32818 ft 479 kts 184°
2026-04-26 21:28 26.78335 -97.44668 32813 ft 479 kts 183°
2026-04-26 21:29 26.71686 -97.44110 32813 ft 479 kts 183°
2026-04-26 21:29 26.65000 -97.43541 32815 ft 479 kts 183°
2026-04-26 21:30 26.58388 -97.42988 32811 ft 479 kts 183°
2026-04-26 21:30 26.51740 -97.42436 32806 ft 479 kts 183°
2026-04-26 21:31 26.45130 -97.41888 32809 ft 479 kts 183°
2026-04-26 21:31 26.38481 -97.41334 32810 ft 479 kts 183°
2026-04-26 21:32 26.31826 -97.40781 32809 ft 479 kts 183°
2026-04-26 21:32 26.25177 -97.40237 32808 ft 479 kts 183°
2026-04-26 21:33 26.18568 -97.39691 32805 ft 479 kts 183°
2026-04-26 21:33 26.11916 -97.39139 32805 ft 480 kts 183°
2026-04-26 21:34 26.05256 -97.38589 32805 ft 480 kts 183°
2026-04-26 21:34 25.98650 -97.38146 32806 ft 474 kts 189°
2026-04-26 21:35 25.95416 -97.38508 32801 ft 463 kts 199°
2026-04-26 21:35 25.92352 -97.39450 32801 ft 452 kts 208°
2026-04-26 21:35 25.87013 -97.42795 32797 ft 433 kts 226°
2026-04-26 21:36 25.83257 -97.46426 32800 ft 431 kts 228°
2026-04-26 21:36 25.77874 -97.51387 32785 ft 439 kts 219°
2026-04-26 21:37 25.72178 -97.54136 32781 ft 455 kts 205°
2026-04-26 21:37 25.66147 -97.56265 32783 ft 455 kts 205°
2026-04-26 21:38 25.60116 -97.58412 32784 ft 455 kts 205°
2026-04-26 21:38 25.54076 -97.60562 32779 ft 456 kts 205°
2026-04-26 21:39 25.48072 -97.62686 32794 ft 456 kts 205°
2026-04-26 21:39 25.42024 -97.64816 32787 ft 456 kts 205°
2026-04-26 21:40 25.35971 -97.66952 32800 ft 456 kts 205°
2026-04-26 21:40 25.29922 -97.69082 32796 ft 456 kts 205°
2026-04-26 21:41 25.23911 -97.71192 32794 ft 456 kts 205°
2026-04-26 21:41 25.17861 -97.73315 32797 ft 456 kts 205°
2026-04-26 21:42 25.11807 -97.75434 32791 ft 456 kts 205°
2026-04-26 21:42 25.05762 -97.77551 32788 ft 456 kts 205°
2026-04-26 21:43 24.99757 -97.79657 32788 ft 456 kts 205°
2026-04-26 21:43 24.93706 -97.81769 32783 ft 456 kts 205°
2026-04-26 21:44 24.87666 -97.83881 32783 ft 456 kts 205°
2026-04-26 21:44 24.81627 -97.85999 32779 ft 455 kts 205°
2026-04-26 21:45 24.75627 -97.88090 32774 ft 455 kts 205°
2026-04-26 21:45 24.69579 -97.90191 32774 ft 455 kts 205°
2026-04-26 21:46 24.63538 -97.92292 32771 ft 455 kts 205°
2026-04-26 21:46 24.57500 -97.94388 32765 ft 455 kts 205°
2026-04-26 21:47 24.51737 -97.96388 32767 ft 455 kts 205°
2026-04-26 21:47 24.45877 -97.98423 32766 ft 455 kts 205°
2026-04-26 21:48 24.39842 -98.00517 32761 ft 455 kts 205°
2026-04-26 21:48 24.33804 -98.02613 32755 ft 455 kts 204°
2026-04-26 21:49 24.27759 -98.04700 32757 ft 455 kts 204°
2026-04-26 21:49 24.21753 -98.06769 32756 ft 456 kts 204°
2026-04-26 21:50 24.16728 -98.08502 32754 ft 456 kts 204°
2026-04-26 21:50 24.09663 -98.10948 32750 ft 456 kts 204°
2026-04-26 21:51 24.03613 -98.13039 32747 ft 456 kts 204°
2026-04-26 21:51 23.97596 -98.15115 32745 ft 456 kts 204°
2026-04-26 21:52 23.91538 -98.17197 32747 ft 457 kts 204°
2026-04-26 21:52 23.85474 -98.19280 32744 ft 457 kts 204°
2026-04-26 21:53 23.79404 -98.21363 32738 ft 457 kts 204°
2026-04-26 21:53 23.73374 -98.23432 32740 ft 458 kts 204°
2026-04-26 21:54 23.67294 -98.25515 32739 ft 458 kts 204°
2026-04-26 21:54 23.61215 -98.27599 32737 ft 459 kts 204°
2026-04-26 21:55 23.55124 -98.29681 32742 ft 459 kts 203°
2026-04-26 21:55 23.49064 -98.31753 32742 ft 460 kts 203°
2026-04-26 21:56 23.42957 -98.33842 32747 ft 460 kts 203°
2026-04-26 21:56 23.36843 -98.35928 32749 ft 461 kts 203°
2026-04-26 21:57 23.30727 -98.38011 32748 ft 461 kts 203°
2026-04-26 21:57 23.24609 -98.40099 32751 ft 461 kts 203°
2026-04-26 21:58 23.18533 -98.42192 32748 ft 461 kts 203°
2026-04-26 21:58 23.12420 -98.44301 32746 ft 461 kts 203°
2026-04-26 21:59 23.06304 -98.46406 32742 ft 461 kts 203°
2026-04-26 21:59 23.00187 -98.48514 32735 ft 461 kts 203°
2026-04-26 22:00 22.94073 -98.50620 32729 ft 461 kts 203°
2026-04-26 22:00 22.88000 -98.52702 32727 ft 461 kts 203°
2026-04-26 22:01 22.81887 -98.54793 32716 ft 461 kts 203°
2026-04-26 22:01 22.75776 -98.56886 32714 ft 461 kts 203°
2026-04-26 22:02 22.70701 -98.58625 32709 ft 460 kts 203°
2026-04-26 22:02 22.63594 -98.61055 32704 ft 461 kts 203°
2026-04-26 22:03 22.57485 -98.63135 32699 ft 461 kts 203°
2026-04-26 22:03 22.51365 -98.65199 32692 ft 461 kts 203°
2026-04-26 22:04 22.45216 -98.67218 32686 ft 462 kts 202°
2026-04-26 22:04 22.39113 -98.69215 32681 ft 462 kts 203°
2026-04-26 22:05 22.32959 -98.71238 32679 ft 462 kts 203°
2026-04-26 22:05 22.26801 -98.73263 32679 ft 463 kts 202°
2026-04-26 22:06 22.20636 -98.75287 32674 ft 463 kts 202°
2026-04-26 22:06 22.14471 -98.77315 32675 ft 464 kts 202°
2026-04-26 22:07 22.08338 -98.79329 32669 ft 464 kts 203°
2026-04-26 22:07 22.02624 -98.82263 32663 ft 450 kts 220°
2026-04-26 22:08 21.97948 -98.86617 32660 ft 444 kts 228°
2026-04-26 22:08 21.93397 -98.91126 32659 ft 445 kts 227°
2026-04-26 22:09 21.88862 -98.95598 32664 ft 445 kts 227°
2026-04-26 22:09 21.84290 -99.00092 32668 ft 446 kts 227°
2026-04-26 22:10 21.79712 -99.04597 32676 ft 446 kts 227°
2026-04-26 22:10 21.75128 -99.09102 32683 ft 447 kts 227°
2026-04-26 22:11 21.70570 -99.13572 32689 ft 447 kts 227°
2026-04-26 22:11 21.65979 -99.18085 32697 ft 447 kts 227°
2026-04-26 22:12 21.61388 -99.22598 32702 ft 447 kts 227°
2026-04-26 22:12 21.56787 -99.27105 32707 ft 448 kts 227°
2026-04-26 22:13 21.52212 -99.31578 32711 ft 448 kts 227°
2026-04-26 22:13 21.47607 -99.36091 32718 ft 448 kts 227°
2026-04-26 22:14 21.43004 -99.40609 32727 ft 448 kts 227°
2026-04-26 22:14 21.38393 -99.45118 32729 ft 449 kts 226°
2026-04-26 22:15 21.33775 -99.49621 32725 ft 449 kts 226°
2026-04-26 22:15 21.29184 -99.54094 32720 ft 449 kts 226°
2026-04-26 22:16 21.24559 -99.58596 32720 ft 449 kts 226°
2026-04-26 22:16 21.19928 -99.63095 32724 ft 450 kts 226°
2026-04-26 22:17 21.15508 -99.67387 32727 ft 449 kts 226°
2026-04-26 22:17 21.11017 -99.71746 32730 ft 450 kts 226°
2026-04-26 22:18 21.06383 -99.76244 32734 ft 450 kts 226°
2026-04-26 22:18 21.01739 -99.80744 32733 ft 450 kts 226°
2026-04-26 22:19 20.97095 -99.85239 32739 ft 451 kts 226°
2026-04-26 22:19 20.92478 -99.89704 32741 ft 451 kts 226°
2026-04-26 22:20 20.88586 -99.93480 32748 ft 451 kts 226°
2026-04-26 22:20 20.83181 -99.98714 32618 ft 451 kts 226°
2026-04-26 22:21 20.80856 -100.00958 32415 ft 451 kts 226°
2026-04-26 22:21 20.78526 -100.03204 32218 ft 451 kts 226°
2026-04-26 22:21 20.76197 -100.05453 32024 ft 451 kts 226°
2026-04-26 22:21 20.73898 -100.07674 31832 ft 452 kts 226°
2026-04-26 22:22 20.71564 -100.09924 31296 ft 454 kts 225°
2026-04-26 22:22 20.69193 -100.12206 30392 ft 462 kts 225°
2026-04-26 22:22 20.66796 -100.14511 29376 ft 466 kts 225°
2026-04-26 22:22 20.64376 -100.16837 28383 ft 469 kts 224°
2026-04-26 22:23 20.61942 -100.19176 27378 ft 473 kts 224°
2026-04-26 22:23 20.59535 -100.21592 26216 ft 478 kts 226°
2026-04-26 22:23 20.57166 -100.24122 25087 ft 485 kts 227°
2026-04-26 22:23 20.54848 -100.26712 24384 ft 480 kts 228°
2026-04-26 22:24 20.52600 -100.29270 23532 ft 478 kts 228°
2026-04-26 22:24 20.50327 -100.31852 22651 ft 475 kts 227°
2026-04-26 22:24 20.48068 -100.34390 21848 ft 470 kts 227°
2026-04-26 22:24 20.45815 -100.36890 21060 ft 464 kts 227°
2026-04-26 22:25 20.43575 -100.39344 20285 ft 459 kts 226°
2026-04-26 22:25 20.41353 -100.41761 19507 ft 455 kts 226°
2026-04-26 22:25 20.39141 -100.44163 18747 ft 451 kts 226°
2026-04-26 22:25 20.36958 -100.46539 17871 ft 449 kts 226°
2026-04-26 22:26 20.34811 -100.48881 17123 ft 444 kts 226°
2026-04-26 22:26 20.32674 -100.51210 16501 ft 436 kts 226°
2026-04-26 22:26 20.30576 -100.53501 15878 ft 429 kts 226°
2026-04-26 22:26 20.28508 -100.55759 15284 ft 424 kts 226°
2026-04-26 22:27 20.26466 -100.57982 14968 ft 413 kts 226°
2026-04-26 22:27 20.24497 -100.60122 14848 ft 397 kts 226°
2026-04-26 22:27 20.22622 -100.62158 14691 ft 370 kts 226°
2026-04-26 22:27 20.20917 -100.64011 14524 ft 340 kts 226°
2026-04-26 22:28 20.19336 -100.65732 14406 ft 313 kts 226°
2026-04-26 22:28 20.17865 -100.67337 14271 ft 294 kts 227°
2026-04-26 22:28 20.16469 -100.68863 14091 ft 281 kts 227°
2026-04-26 22:28 20.15118 -100.70338 13802 ft 276 kts 227°
2026-04-26 22:29 20.13782 -100.71793 13526 ft 273 kts 227°
2026-04-26 22:29 20.12474 -100.73215 13272 ft 266 kts 227°
2026-04-26 22:29 20.11197 -100.74600 13020 ft 259 kts 227°
2026-04-26 22:29 20.09949 -100.75956 12797 ft 254 kts 227°
2026-04-26 22:30 20.08728 -100.77283 12598 ft 254 kts 227°
2026-04-26 22:30 20.07499 -100.78619 12277 ft 252 kts 227°
2026-04-26 22:30 20.06277 -100.79936 11968 ft 250 kts 225°
2026-04-26 22:30 20.04862 -100.80996 11660 ft 250 kts 208°
2026-04-26 22:31 20.03234 -100.81623 11325 ft 249 kts 198°
2026-04-26 22:31 20.01591 -100.82155 10996 ft 245 kts 198°
2026-04-26 22:31 19.99981 -100.82681 10672 ft 237 kts 198°
2026-04-26 22:31 19.98465 -100.83254 10342 ft 226 kts 208°
2026-04-26 22:32 19.97260 -100.84258 10061 ft 217 kts 229°
2026-04-26 22:32 19.96394 -100.85536 9779 ft 210 kts 234°
2026-04-26 22:32 19.95588 -100.86760 9497 ft 201 kts 234°
2026-04-26 22:32 19.94826 -100.87915 9239 ft 179 kts 234°
2026-04-26 22:33 19.94141 -100.88951 8994 ft 166 kts 234°
2026-04-26 22:33 19.92829 -100.90933 8575 ft 163 kts 233°
2026-04-26 22:33 19.92177 -100.91917 8357 ft 163 kts 233°
2026-04-26 22:34 19.91524 -100.92902 8136 ft 162 kts 233°
2026-04-26 22:34 19.90886 -100.93862 7949 ft 160 kts 233°
2026-04-26 22:34 19.90234 -100.94822 7717 ft 160 kts 231°
2026-04-26 22:34 19.89584 -100.95775 7480 ft 158 kts 232°
2026-04-26 22:35 19.88942 -100.96713 7258 ft 156 kts 231°
2026-04-26 22:35 19.88295 -100.97647 7046 ft 159 kts 232°
2026-04-26 22:35 19.87644 -100.98591 6779 ft 159 kts 232°
2026-04-26 22:35 19.87037 -100.99551 6603 ft 154 kts 231°
2026-04-26 22:36 19.86420 -101.00445 6366 ft 149 kts 228°
2026-04-26 22:36 19.85812 -101.01312 6103 ft 145 kts 231°
2026-04-26 22:36 19.85272 -101.02105 6072 ft 116 kts 235°
2026-04-26 22:36 19.84969 -101.02553 6067 ft 38 kts 231°
2026-04-26 22:37 19.84835 -101.02658 6063 ft 17 kts 208°
2026-04-26 22:37 19.84771 -101.02690 6063 ft 1 kts 205°
2026-04-26 22:37 19.84766 -101.02693 6063 ft 0 kts 205°
2026-04-26 22:38 19.84754 -101.02699 6063 ft 6 kts 205°
2026-04-26 22:39 19.84712 -101.02719 6061 ft 6 kts 205°
2026-04-26 22:39 19.84661 -101.02741 6060 ft 9 kts 193°
2026-04-26 22:39 19.84595 -101.02723 6059 ft 11 kts 148°
2026-04-26 22:39 19.84549 -101.02730 6058 ft 5 kts 218°
2026-04-26 22:40 19.84544 -101.02737 6058 ft 0 kts 226°
2026-04-26 22:41 19.84530 -101.02754 6058 ft 6 kts 232°
2026-04-26 22:41 19.84509 -101.02786 6057 ft 5 kts 234°
2026-04-26 22:41 19.84490 -101.02814 6057 ft 4 kts 232°
2026-04-26 22:41 19.84470 -101.02817 6056 ft 3 kts 169°
2026-04-26 22:42 19.84449 -101.02807 6056 ft 3 kts 149°
2026-04-26 22:42 19.84432 -101.02794 6056 ft 3 kts 144°
2026-04-26 22:42 19.84427 -101.02790 6056 ft 0 kts 144°